TimeEDT,TemperatureF,Dew PointF,Humidity,Sea Level PressureIn,VisibilityMPH,Wind Direction,Wind SpeedMPH,Gust SpeedMPH,PrecipitationIn,Events,Conditions,WindDirDegrees,DateUTC
12:53 AM,63.0,61.0,93,29.96,0.2,Calm,Calm,-,N/A,Fog,Fog,0,2012-10-03 04:53:00
1:53 AM,63.0,62.1,97,29.97,0.2,Calm,Calm,-,N/A,Fog,Fog,0,2012-10-03 05:53:00
2:50 AM,62.6,60.8,94,29.98,1.2,Calm,Calm,-,0.03,Rain,Light Rain,0,2012-10-03 06:50:00
2:53 AM,63.0,62.1,97,29.98,1.2,Calm,Calm,-,0.03,Rain,Light Rain,0,2012-10-03 06:53:00
3:07 AM,62.6,60.8,94,29.98,2.5,Calm,Calm,-,0.00,Rain,Light Rain,0,2012-10-03 07:07:00
3:50 AM,62.6,60.8,94,29.98,3.0,Calm,Calm,-,0.00,,Overcast,0,2012-10-03 07:50:00
3:53 AM,62.1,61.0,96,29.99,3.0,Calm,Calm,-,0.00,,Overcast,0,2012-10-03 07:53:00
4:15 AM,62.6,60.8,94,29.99,2.0,Calm,Calm,-,N/A,,Overcast,0,2012-10-03 08:15:00
4:28 AM,62.6,60.8,94,29.98,1.8,Calm,Calm,-,N/A,,Overcast,0,2012-10-03 08:28:00
4:53 AM,63.0,61.0,93,30.00,1.2,Calm,Calm,-,N/A,,Overcast,0,2012-10-03 08:53:00
5:11 AM,62.6,60.8,94,30.00,1.0,Calm,Calm,-,N/A,,Overcast,0,2012-10-03 09:11:00
5:28 AM,62.6,60.8,94,30.00,0.8,Calm,Calm,-,N/A,,Mist,0,2012-10-03 09:28:00
5:53 AM,63.0,61.0,93,30.01,0.5,Calm,Calm,-,N/A,Fog,Fog,0,2012-10-03 09:53:00
6:53 AM,63.0,62.1,97,30.02,0.5,Calm,Calm,-,N/A,Fog,Fog,0,2012-10-03 10:53:00
7:53 AM,63.0,62.1,97,30.04,0.2,Calm,Calm,-,N/A,Fog,Fog,0,2012-10-03 11:53:00
8:42 AM,64.4,62.6,94,30.04,1.0,Calm,Calm,-,N/A,,Overcast,0,2012-10-03 12:42:00
8:53 AM,64.0,63.0,96,30.06,1.0,Calm,Calm,-,N/A,,Overcast,0,2012-10-03 12:53:00
9:15 AM,64.4,62.6,94,30.06,0.8,Calm,Calm,-,N/A,,Overcast,0,2012-10-03 13:15:00
9:30 AM,64.4,64.4,100,30.06,1.5,Calm,Calm,-,N/A,,Overcast,0,2012-10-03 13:30:00
9:42 AM,64.4,62.6,94,30.06,2.0,Calm,Calm,-,N/A,,Overcast,0,2012-10-03 13:42:00
9:49 AM,64.4,64.4,100,30.07,2.5,Calm,Calm,-,N/A,,Overcast,0,2012-10-03 13:49:00
9:53 AM,64.9,64.0,97,30.08,2.5,Calm,Calm,-,N/A,,Overcast,0,2012-10-03 13:53:00
10:12 AM,66.2,64.4,94,30.07,3.0,Calm,Calm,-,N/A,,Overcast,0,2012-10-03 14:12:00
10:25 AM,66.2,64.4,94,30.07,4.0,Calm,Calm,-,N/A,,Overcast,0,2012-10-03 14:25:00
10:40 AM,68.0,64.4,88,30.07,8.0,West,6.9,-,N/A,,Overcast,260,2012-10-03 14:40:00
10:53 AM,68.0,64.9,90,30.07,9.0,West,4.6,-,N/A,,Overcast,280,2012-10-03 14:53:00
11:49 AM,69.8,64.4,83,30.07,8.0,Variable,5.8,-,N/A,,Overcast,0,2012-10-03 15:49:00
11:53 AM,69.1,64.9,87,30.07,8.0,WSW,3.5,-,N/A,,Overcast,240,2012-10-03 15:53:00
12:53 PM,71.1,66.0,84,30.08,10.0,Calm,Calm,-,N/A,,Overcast,0,2012-10-03 16:53:00
1:33 PM,71.6,66.2,83,30.07,10.0,South,3.5,-,N/A,,Mostly Cloudy,190,2012-10-03 17:33:00
1:53 PM,69.1,66.0,90,30.07,10.0,South,4.6,-,N/A,,Mostly Cloudy,190,2012-10-03 17:53:00
2:17 PM,69.8,66.2,88,30.07,10.0,Calm,Calm,-,N/A,,Mostly Cloudy,0,2012-10-03 18:17:00
2:53 PM,70.0,66.0,87,30.07,10.0,Calm,Calm,-,N/A,,Partly Cloudy,0,2012-10-03 18:53:00
4:53 PM,75.9,66.0,71,30.07,10.0,Calm,Calm,-,N/A,,Clear,0,2012-10-03 20:53:00
5:53 PM,75.0,66.0,73,30.08,10.0,Calm,Calm,-,N/A,,Clear,0,2012-10-03 21:53:00
6:53 PM,71.1,66.0,84,30.10,10.0,Calm,Calm,-,N/A,,Clear,0,2012-10-03 22:53:00
7:53 PM,68.0,64.9,90,30.11,9.0,Calm,Calm,-,N/A,,Clear,0,2012-10-03 23:53:00
8:53 PM,68.0,64.9,90,30.12,10.0,Calm,Calm,-,N/A,,Clear,0,2012-10-04 00:53:00
9:53 PM,66.0,64.0,93,30.12,7.0,Calm,Calm,-,N/A,,Clear,0,2012-10-04 01:53:00
10:53 PM,66.0,64.0,93,30.13,6.0,Calm,Calm,-,0.00,Rain,Light Rain,0,2012-10-04 02:53:00
11:53 PM,66.0,64.0,93,30.13,6.0,Calm,Calm,-,0.00,Rain,Light Rain,0,2012-10-04 03:53:00